Wind_Speed
26 26 25 26 26 26 26 27 28 29 29 29 28 28 28 28 28 28 28 28 27 27 27 27 27 27 27 26 26 26 26 26 26 26 26 25 24 25 26 27 27 27 27
25 25 25 25 25 25 25 26 26 26 26 26 26 25 26 26 25 25 24 24 24 24 24 24 24 24 24 24 24 23 24 24 23 23 23 23 23 23 24 24 25 25 26
24 24 24 24 24 23 24 24 24 23 24 23 23 23 23 23 23 22 22 22 22 22 22 22 22 23 23 22 21 21 21 21 21 21 21 21 21 21 22 23 23 23 23
23 23 23 23 22 21 20 20 21 21 20 20 20 20 20 20 20 19 19 19 19 19 20 20 20 20 20 20 20 19 19 19 20 20 21 20 19 19 20 22 21 21 21
20 20 19 19 18 18 17 17 17 17 17 16 16 17 16 17 17 17 17 17 16 16 16 16 17 17 17 18 18 18 18 18 18 19 19 19 18 18 18 19 19 19 19
16 16 16 15 15 15 15 15 15 14 14 14 13 13 13 14 14 14 15 14 14 14 14 13 13 13 14 14 15 16 16 16 16 16 16 15 15 16 16 16 15 15 16
14 14 13 13 12 12 12 11 11 11 12 12 11 10 11 10 10 11 11 12 12 11 10 10 10 10 11 12 12 13 13 13 13 13 12 12 12 13 13 13 13 13 13
12 12 12 12 11 10 10 10 10 10 9 9 8 8 7 8 8 8 8 8 8 8 8 8 7 8 8 9 9 9 8 8 9 9 9 9 9 9 10 10 9 9 9
11 11 10 10 9 9 9 9 9 8 7 6 6 5 5 4 4 4 4 4 4 5 5 5 5 5 6 6 7 7 6 6 6 6 6 6 6 6 6 6 6 6 7
8 8 8 7 7 6 6 6 6 5 4 3 3 2 2 2 1 1 2 2 2 3 3 3 4 4 5 5 5 5 5 4 4 4 4 3 3 3 3 3 3 3 4
6 6 5 5 5 4 4 3 3 2 2 2 2 1 0 1 1 1 2 4 4 4 4 4 4 3 4 4 4 4 4 4 4 3 3 2 1 1 1 1 1 2 3
4 4 3 4 3 3 3 2 2 1 1 2 2 2 2 3 3 3 4 5 5 5 5 5 4 5 5 5 5 4 4 3 3 3 4 3 2 1 1 0 1 2 3
2 2 3 3 3 3 3 3 3 3 3 3 3 3 4 4 5 6 6 7 7 7 6 6 6 6 6 6 5 5 6 5 4 4 4 4 3 2 2 2 2 2 2
3 3 3 4 4 4 5 4 5 5 5 5 5 6 6 6 7 7 7 8 8 8 7 7 7 7 7 7 7 7 6 5 5 5 5 4 4 3 3 3 3 3 4
4 3 4 4 5 5 6 6 6 7 6 6 6 6 7 8 8 8 9 8 8 9 9 8 8 8 8 8 8 7 7 7 7 7 6 6 5 5 4 4 4 4 5
5 4 5 5 6 7 7 7 7 7 7 8 8 8 9 9 10 10 10 10 10 9 9 9 8 8 8 8 8 8 8 7 7 7 7 7 6 6 5 5 5 6 6
7 6 6 7 7 7 8 8 9 9 9 10 10 10 10 11 11 10 10 10 10 9 9 9 9 8 9 9 8 8 7 7 7 7 7 6 6 6 5 5 6 6 7
8 8 9 9 9 9 9 9 10 10 10 11 11 11 11 11 11 10 10 9 9 9 9 9 9 9 8 8 8 8 7 7 7 6 6 5 5 5 5 6 7 8 9
9 10 10 10 10 10 9 10 10 10 10 11 11 11 11 11 10 10 9 9 9 9 9 9 9 8 8 8 7 7 6 5 5 4 4 4 4 4 5 6 7 8 9
10 10 10 10 9 9 9 9 9 9 10 10 10 10 10 10 9 9 9 9 8 8 8 8 7 7 7 6 6 5 4 4 3 3 3 4 5 6 6 7 8 9 11
10 9 9 9 9 9 9 9 8 8 8 8 8 8 8 8 8 8 8 7 7 7 6 6 6 5 5 4 4 3 3 3 3 4 5 6 6 7 8 9 10 11 12
8 8 8 8 8 8 8 8 8 8 7 7 6 6 6 6 5 5 5 5 4 4 4 4 3 3 3 3 3 2 3 4 5 6 6 7 8 9 10 11 12 13 14
7 6 6 5 6 6 6 6 6 6 5 5 4 3 3 3 2 2 2 2 2 2 1 1 1 2 2 3 3 4 5 6 6 7 8 9 10 11 12 13 14 16 17
5 5 4 4 4 4 4 4 4 4 3 3 2 1 1 1 0 0 1 1 1 2 2 2 3 3 4 5 6 7 7 8 9 9 10 11 12 14 15 16 18 19 21
3 3 2 3 2 2 2 2 2 1 1 1 1 0 1 2 2 3 3 3 4 4 5 5 6 7 7 8 8 9 10 11 11 13 14 15 16 17 18 19 21 22 24
2 1 1 1 1 1 1 2 2 3 3 3 3 3 4 4 5 6 6 7 7 8 8 9 9 10 11 11 12 13 13 14 15 16 17 18 20 21 22 23 24 25 27
Wind_Direction
284 283 282 282 281 281 281 280 278 277 275 275 274 273 273 273 273 272 271 270 269 267 264 262 261 261 260 260 259 259 259 260 261 260 261 263 264 264 264 265 266 268 270
284 283 283 282 282 283 283 282 281 279 279 277 276 275 274 274 272 272 272 270 268 266 264 262 261 260 258 257 257 257 257 258 260 261 261 262 264 266 266 266 267 267 271
285 284 284 284 287 287 287 285 282 280 280 279 276 277 277 275 273 274 273 271 269 267 264 261 259 257 257 255 253 254 254 256 258 259 259 261 263 266 267 269 270 270 272
285 286 287 289 290 289 287 285 282 281 281 281 279 279 276 274 274 273 271 271 268 266 264 260 258 254 253 251 250 251 253 255 257 258 260 262 265 267 270 271 272 272 273
288 289 290 290 290 289 289 289 287 285 284 281 281 279 276 273 271 268 267 268 266 266 263 259 255 251 248 246 246 249 252 254 256 259 261 264 265 268 271 273 273 273 274
293 294 295 295 295 295 294 292 288 284 282 281 283 281 277 274 271 267 267 266 264 264 262 258 252 246 246 245 244 247 251 253 255 259 262 262 263 267 272 274 271 273 276
297 297 299 298 298 297 295 292 290 287 285 282 283 282 277 269 267 268 266 262 259 260 257 254 252 248 244 243 244 245 248 251 253 254 257 259 264 266 269 270 272 273 275
300 300 301 302 301 296 296 295 294 295 293 291 288 286 276 271 268 267 262 256 255 254 250 246 248 245 241 239 238 236 238 244 248 250 254 258 265 266 267 272 273 274 278
300 302 304 304 303 301 298 297 298 296 295 296 297 294 289 279 266 261 251 243 238 237 226 220 221 223 220 220 217 221 227 233 237 242 247 255 259 260 264 272 276 283 289
301 304 306 309 310 311 310 308 309 307 303 310 318 308 286 265 253 243 222 210 200 204 196 182 184 193 189 192 196 199 202 207 208 218 227 232 237 249 264 278 286 298 306
307 313 315 318 321 326 329 332 334 330 336 350 9 17 58 161 140 122 120 123 121 125 129 136 134 142 156 157 160 163 172 179 182 186 197 190 193 208 231 253 300 332 333
328 340 351 356 358 1 7 13 25 34 49 69 66 65 84 101 110 112 110 113 112 113 118 121 124 121 120 127 132 133 142 151 154 158 156 152 146 135 132 128 3 355 348
4 30 36 37 40 44 52 64 76 82 87 90 85 88 91 96 105 110 109 107 103 105 104 108 114 119 115 114 119 120 121 123 118 126 133 138 131 110 89 76 39 17 3
53 60 57 60 64 69 75 84 91 94 97 91 94 98 95 99 107 112 111 105 100 100 103 103 109 114 114 110 110 110 111 110 107 106 112 116 111 97 83 63 46 33 19
63 66 70 75 79 84 87 91 97 101 97 96 100 105 105 106 109 111 112 107 103 102 101 99 99 104 104 105 105 106 106 104 99 98 99 99 93 85 78 68 50 33 18
72 75 84 90 93 92 91 96 101 102 101 100 101 104 106 106 107 112 111 105 102 100 99 99 100 101 103 103 104 103 102 99 97 97 94 89 86 81 71 56 40 26 15
81 85 93 98 99 97 95 97 101 102 102 102 102 104 105 106 106 106 107 105 102 100 99 99 99 99 102 101 100 99 98 96 93 90 86 81 76 66 54 41 29 17 8
85 93 98 100 100 100 99 100 101 102 102 102 103 105 106 106 105 104 104 103 100 99 99 99 98 99 99 98 96 96 94 92 88 84 77 69 61 50 37 24 13 5 0
84 91 95 96 96 97 98 99 101 103 103 102 103 103 103 102 102 102 102 100 100 99 98 97 97 96 96 96 95 93 90 86 81 71 62 50 34 17 6 359 356 354 351
83 87 90 91 93 96 98 99 101 104 103 102 102 102 102 101 100 99 98 97 97 97 98 98 96 93 91 89 88 85 80 72 63 48 29 13 1 354 350 348 346 345 344
80 84 86 87 88 91 96 98 101 102 102 102 102 102 102 102 100 98 96 94 93 92 93 92 90 85 80 76 72 65 53 39 21 3 353 348 345 343 341 339 337 337 337
77 82 85 86 87 90 94 97 100 101 101 102 102 102 102 102 101 99 96 93 88 84 83 80 74 65 56 47 35 19 3 351 343 339 337 335 335 334 333 332 331 331 331
75 78 81 83 82 87 92 97 100 99 98 98 98 99 102 103 102 97 91 90 88 82 68 37 12 1 352 341 331 324 323 324 323 322 323 323 323 324 325 325 325 325 325
70 72 76 77 79 87 91 92 91 89 86 81 79 81 89 93 62 1 317 312 305 295 290 293 298 304 308 309 309 309 310 311 311 311 312 313 315 316 317 317 317 318 319
54 62 72 73 72 76 79 75 66 51 39 29 14 335 297 292 295 299 299 298 295 293 292 292 292 293 295 296 297 298 299 301 302 304 305 307 308 310 311 312 312 314 315
354 349 332 315 306 301 297 297 300 299 299 294 287 284 285 286 287 288 288 289 289 289 290 290 291 292 293 293 294 295 296 297 299 301 302 303 304 306 307 308 309 310 311
Height
5786 5785 5783 5781 5780 5779 5778 5777 5776 5775 5775 5774 5774 5774 5773 5773 5773 5773 5773 5773 5773 5773 5773 5774 5775 5776 5776 5777 5778 5779 5780 5782 5782 5783 5784 5784 5785 5785 5785 5786 5786 5786 5786
5780 5778 5776 5775 5774 5772 5771 5769 5768 5768 5767 5767 5766 5766 5766 5766 5766 5766 5766 5766 5766 5766 5766 5767 5768 5768 5769 5770 5772 5773 5774 5775 5777 5777 5778 5779 5779 5779 5780 5780 5780 5780 5780
5774 5772 5770 5768 5767 5765 5764 5762 5761 5761 5760 5760 5759 5759 5759 5759 5759 5759 5759 5759 5759 5760 5760 5760 5761 5762 5762 5764 5766 5767 5768 5770 5771 5772 5772 5773 5774 5774 5774 5774 5774 5774 5774
5767 5765 5764 5762 5760 5759 5758 5757 5756 5755 5755 5754 5754 5753 5753 5753 5753 5753 5753 5753 5753 5754 5754 5754 5755 5756 5757 5758 5760 5761 5763 5764 5765 5766 5767 5768 5768 5768 5768 5769 5768 5769 5769
5762 5760 5758 5757 5755 5754 5753 5752 5751 5751 5750 5749 5749 5748 5748 5748 5748 5748 5748 5748 5749 5749 5748 5749 5749 5750 5752 5753 5755 5757 5758 5759 5760 5761 5762 5762 5763 5763 5763 5763 5763 5763 5763
5757 5756 5754 5753 5751 5750 5749 5748 5747 5746 5746 5745 5745 5744 5743 5743 5743 5744 5744 5744 5744 5744 5744 5745 5745 5746 5747 5749 5750 5752 5753 5754 5756 5757 5757 5758 5758 5759 5759 5759 5759 5759 5759
5754 5752 5751 5750 5748 5747 5746 5745 5744 5743 5743 5742 5742 5741 5740 5740 5740 5740 5740 5740 5740 5741 5741 5741 5742 5743 5744 5745 5746 5748 5749 5750 5752 5753 5753 5753 5754 5754 5755 5754 5755 5755 5755
5751 5750 5748 5747 5746 5745 5744 5743 5742 5741 5740 5740 5739 5738 5738 5737 5737 5737 5737 5737 5738 5738 5738 5739 5740 5740 5741 5742 5744 5745 5746 5747 5748 5749 5750 5750 5751 5751 5751 5752 5751 5751 5751
5749 5747 5746 5745 5743 5742 5741 5740 5740 5739 5738 5738 5737 5737 5736 5735 5735 5736 5735 5735 5735 5736 5736 5737 5738 5738 5739 5740 5741 5742 5743 5744 5745 5746 5747 5747 5748 5748 5749 5749 5749 5749 5749
5747 5746 5744 5743 5742 5741 5740 5739 5738 5738 5737 5737 5736 5736 5735 5735 5734 5734 5734 5735 5735 5735 5735 5736 5736 5737 5738 5739 5740 5741 5742 5743 5743 5744 5745 5745 5746 5746 5747 5747 5747 5747 5747
5745 5744 5743 5742 5741 5740 5739 5738 5738 5737 5737 5736 5736 5735 5735 5735 5735 5735 5734 5735 5735 5735 5735 5736 5736 5737 5737 5738 5739 5740 5740 5741 5742 5743 5743 5744 5745 5745 5745 5745 5745 5745 5745
5744 5743 5742 5741 5740 5739 5739 5738 5738 5737 5737 5737 5736 5736 5736 5735 5735 5735 5735 5736 5736 5736 5736 5736 5737 5737 5738 5738 5739 5740 5740 5741 5741 5742 5743 5743 5744 5744 5744 5744 5744 5744 5744
5744 5743 5742 5742 5741 5740 5739 5739 5738 5738 5738 5737 5737 5737 5737 5736 5736 5736 5737 5737 5737 5737 5737 5737 5738 5739 5739 5740 5740 5740 5741 5741 5742 5742 5743 5743 5744 5744 5744 5744 5744 5743 5743
5745 5744 5743 5743 5742 5741 5740 5740 5740 5739 5739 5739 5738 5738 5738 5738 5738 5738 5738 5739 5739 5739 5739 5739 5740 5740 5741 5741 5741 5742 5742 5742 5743 5743 5743 5744 5744 5744 5744 5744 5744 5743 5743
5745 5745 5744 5744 5743 5743 5742 5742 5741 5741 5741 5741 5741 5740 5740 5740 5740 5740 5740 5741 5741 5741 5741 5742 5742 5742 5743 5743 5743 5743 5744 5744 5744 5744 5744 5745 5745 5745 5744 5744 5743 5743 5742
5746 5746 5745 5745 5745 5744 5744 5744 5744 5743 5743 5743 5743 5743 5743 5743 5743 5743 5743 5744 5744 5744 5744 5744 5744 5745 5745 5745 5745 5745 5746 5746 5746 5746 5746 5746 5746 5745 5745 5744 5743 5742 5741
5748 5747 5747 5747 5746 5746 5746 5746 5746 5746 5746 5746 5745 5745 5746 5746 5746 5746 5746 5746 5746 5747 5747 5747 5747 5747 5747 5747 5747 5748 5748 5748 5748 5747 5747 5747 5747 5746 5745 5744 5744 5742 5741
5750 5749 5749 5749 5749 5749 5749 5749 5749 5749 5749 5749 5749 5749 5749 5749 5749 5749 5749 5749 5749 5749 5749 5749 5750 5750 5750 5750 5750 5750 5750 5750 5749 5749 5749 5748 5747 5747 5746 5745 5743 5742 5740
5753 5752 5752 5752 5752 5752 5752 5752 5752 5752 5752 5752 5752 5752 5752 5752 5752 5752 5752 5752 5752 5752 5752 5752 5752 5752 5752 5752 5752 5752 5752 5751 5751 5750 5750 5749 5748 5747 5746 5745 5743 5741 5740
5756 5756 5755 5755 5755 5755 5755 5755 5755 5755 5755 5755 5755 5755 5755 5755 5755 5755 5755 5755 5755 5755 5755 5755 5755 5755 5754 5754 5754 5753 5753 5752 5752 5751 5750 5749 5748 5747 5745 5744 5742 5740 5738
5759 5759 5759 5758 5758 5758 5758 5758 5758 5758 5758 5758 5758 5758 5758 5758 5758 5758 5758 5758 5758 5758 5757 5757 5757 5756 5756 5756 5755 5755 5754 5753 5752 5751 5750 5749 5747 5746 5744 5742 5740 5738 5736
5763 5762 5762 5762 5761 5761 5761 5761 5760 5760 5761 5761 5761 5761 5761 5761 5761 5760 5760 5760 5760 5759 5759 5759 5758 5758 5757 5757 5756 5755 5754 5753 5752 5751 5749 5748 5746 5745 5743 5741 5738 5736 5733
5765 5765 5765 5764 5764 5764 5763 5763 5763 5763 5763 5763 5763 5763 5762 5762 5762 5762 5761 5761 5761 5760 5760 5759 5759 5758 5757 5756 5756 5755 5754 5752 5751 5749 5748 5746 5744 5743 5741 5738 5736 5733 5730
5768 5767 5767 5766 5766 5766 5765 5765 5765 5765 5765 5764 5764 5764 5763 5763 5763 5762 5762 5761 5761 5760 5760 5759 5759 5758 5757 5756 5754 5753 5752 5751 5749 5747 5746 5744 5742 5740 5737 5735 5732 5729 5726
5769 5769 5768 5768 5768 5767 5767 5766 5766 5766 5766 5765 5765 5764 5764 5764 5763 5763 5762 5761 5761 5760 5759 5758 5757 5756 5755 5754 5753 5751 5750 5748 5746 5744 5742 5740 5738 5736 5733 5730 5727 5724 5720
5770 5769 5769 5769 5768 5768 5768 5767 5767 5766 5766 5765 5765 5764 5764 5763 5763 5762 5761 5760 5759 5758 5757 5756 5755 5754 5753 5751 5750 5748 5747 5745 5742 5740 5738 5735 5733 5731 5728 5725 5721 5718 5714